Powrót do katalogu

STARLINK-4100

AktywnyŁącznośćVLEO
NORAD 53144·PAYLOAD·🇺🇸 United States

Wystrzelony Jul 17, 2022 z Cape Canaveral Space Force Station

Loading…

Następne Przeloty (najbliższe 24 godziny)

TLE

ŚwieżeSource: CelesTrak SupGP

Epoka: Sep 14, 2026, 20:58 UTC

1 53144C 22083N   26257.87409722 -.00007156  00000+0 -21713-3 0  2577
2 53144  53.1594  30.3069 0001172  78.0265  79.7364 15.33553648    16

Śledź STARLINK-4100 w czasie rzeczywistym z AllMySat

Download on the App Store